TimeCST,TemperatureF,Dew PointF,Humidity,Sea Level PressureIn,VisibilityMPH,Wind Direction,Wind SpeedMPH,Gust SpeedMPH,PrecipitationIn,Events,Conditions,WindDirDegrees,DateUTC
12:53 AM,68.0,64.9,90,30.14,8.0,SE,11.5,-,N/A,,Overcast,140,2013-01-29 06:53:00
1:00 AM,68.0,64.4,88,30.13,7.0,SE,10.4,-,N/A,,Overcast,130,2013-01-29 07:00:00
1:53 AM,68.0,64.9,90,30.12,7.0,SE,10.4,19.6,N/A,,Overcast,140,2013-01-29 07:53:00
2:53 AM,68.0,66.0,93,30.12,7.0,SE,9.2,-,N/A,,Overcast,130,2013-01-29 08:53:00
3:53 AM,68.0,66.0,93,30.10,5.0,SE,10.4,-,N/A,,Overcast,140,2013-01-29 09:53:00
4:10 AM,68.0,66.2,94,30.10,5.0,SSE,8.1,-,N/A,,Overcast,150,2013-01-29 10:10:00
4:53 AM,68.0,66.9,96,30.09,6.0,SE,9.2,-,N/A,,Overcast,140,2013-01-29 10:53:00
5:53 AM,68.0,66.9,96,30.09,5.0,SSE,6.9,-,N/A,,Overcast,160,2013-01-29 11:53:00
6:53 AM,68.0,66.0,93,30.09,7.0,SSE,5.8,-,N/A,,Overcast,150,2013-01-29 12:53:00
7:22 AM,68.0,66.2,94,30.09,6.0,SSE,8.1,-,N/A,,Overcast,160,2013-01-29 13:22:00
7:34 AM,68.0,66.2,94,30.09,2.5,SSE,9.2,-,N/A,,Overcast,160,2013-01-29 13:34:00
7:53 AM,69.1,66.0,90,30.10,2.5,SSE,6.9,-,N/A,,Overcast,160,2013-01-29 13:53:00
8:00 AM,68.0,66.2,94,30.09,4.0,SE,8.1,-,N/A,,Overcast,140,2013-01-29 14:00:00
8:15 AM,68.0,66.2,94,30.09,1.8,SSE,8.1,-,N/A,,Overcast,150,2013-01-29 14:15:00
8:24 AM,68.0,66.2,94,30.09,3.0,SSE,8.1,-,N/A,,Overcast,150,2013-01-29 14:24:00
8:34 AM,68.0,66.2,94,30.10,1.8,SSE,9.2,-,N/A,,Overcast,150,2013-01-29 14:34:00
8:46 AM,69.8,66.2,88,30.09,3.0,SSE,8.1,-,N/A,,Overcast,150,2013-01-29 14:46:00
8:53 AM,69.1,66.9,93,30.10,9.0,SSE,11.5,-,N/A,,Overcast,150,2013-01-29 14:53:00
9:53 AM,71.1,66.9,87,30.10,10.0,SSE,11.5,-,N/A,,Overcast,150,2013-01-29 15:53:00
10:53 AM,73.9,66.9,79,30.08,10.0,SE,13.8,-,N/A,,Overcast,140,2013-01-29 16:53:00
11:14 AM,73.4,66.2,78,30.07,10.0,SSE,13.8,19.6,N/A,,Overcast,160,2013-01-29 17:14:00
11:37 AM,73.4,68.0,83,30.06,10.0,SSE,13.8,-,N/A,,Overcast,160,2013-01-29 17:37:00
11:53 AM,73.0,66.9,81,30.06,10.0,SSE,15.0,-,N/A,,Overcast,150,2013-01-29 17:53:00
12:53 PM,73.9,68.0,82,30.01,10.0,SSE,16.1,20.7,N/A,,Overcast,150,2013-01-29 18:53:00
1:53 PM,73.9,66.9,79,29.99,10.0,SSE,12.7,-,N/A,,Overcast,150,2013-01-29 19:53:00
2:18 PM,73.4,68.0,83,29.98,10.0,SSE,13.8,20.7,N/A,,Overcast,150,2013-01-29 20:18:00
2:38 PM,73.4,68.0,83,29.98,10.0,SSE,13.8,-,N/A,,Overcast,150,2013-01-29 20:38:00
2:53 PM,73.9,68.0,82,29.97,10.0,SSE,10.4,-,N/A,,Overcast,150,2013-01-29 20:53:00
3:53 PM,73.0,68.0,84,29.96,10.0,SSE,13.8,-,N/A,,Overcast,150,2013-01-29 21:53:00
4:25 PM,71.6,66.2,83,29.94,9.0,SSE,16.1,21.9,N/A,,Overcast,150,2013-01-29 22:25:00
4:53 PM,71.1,66.9,87,29.95,8.0,SSE,11.5,-,N/A,,Overcast,160,2013-01-29 22:53:00
5:53 PM,70.0,66.9,90,29.94,8.0,SSE,12.7,-,0.01,,Overcast,160,2013-01-29 23:53:00
6:53 PM,70.0,68.0,93,29.93,7.0,SSE,12.7,-,N/A,,Overcast,160,2013-01-30 00:53:00
7:53 PM,71.1,68.0,90,29.92,6.0,SSE,11.5,-,N/A,,Overcast,150,2013-01-30 01:53:00
8:46 PM,71.6,69.8,94,29.91,2.5,South,13.8,24.2,N/A,,Overcast,170,2013-01-30 02:46:00
8:53 PM,71.1,69.1,93,29.92,2.0,South,10.4,19.6,N/A,,Overcast,180,2013-01-30 02:53:00
9:17 PM,69.8,68.0,94,29.91,4.0,South,13.8,21.9,N/A,,Overcast,170,2013-01-30 03:17:00
9:53 PM,71.1,68.0,90,29.91,7.0,South,11.5,-,N/A,,Overcast,170,2013-01-30 03:53:00
10:24 PM,69.8,68.0,94,29.88,2.5,SSE,17.3,26.5,N/A,,Overcast,160,2013-01-30 04:24:00
10:53 PM,71.1,69.1,93,29.89,2.0,South,12.7,20.7,N/A,,Overcast,180,2013-01-30 04:53:00
11:06 PM,71.6,69.8,94,29.89,3.0,South,13.8,21.9,N/A,,Overcast,170,2013-01-30 05:06:00
11:53 PM,71.1,69.1,93,29.88,4.0,South,12.7,21.9,N/A,,Overcast,180,2013-01-30 05:53:00